AA4OM-2 Weather Reports


time (UTC)temp
F
wind
direction
speed
knots
gust
knots
rain 1hr
in
rain 24hr
in
rain mn
in
humidity
%
barometer
mb
20260504160419 75 210 2.6 6.1 0.00 0.00 0.00 49 1013.1
20260504150843 71 250 6.1 9.6 0.00 0.00 0.00 53 1013.6
20260504150339 71 231 3.5 7.8 0.00 0.00 0.00 54 1013.7
20260504141310 67 215 3.5 4.3 0.00 0.00 0.00 61 1013.9
20260504140806 67 212 1.7 4.3 0.00 0.00 0.00 61 1013.9
20260504140302 66 216 1.7 4.3 0.00 0.00 0.00 63 1013.8
20260504130731 63 250 1.7 5.2 0.00 0.00 0.00 67 1013.6
20260504130226 63 221 2.6 4.3 0.00 0.00 0.00 70 1013.8
20260504120150 56 232 0.0 0.0 0.00 0.00 0.00 80 1013.6
20260504110618 59 239 0.9 1.7 0.00 0.00 0.00 67 1013.1
20260504110114 59 221 1.7 2.6 0.00 0.00 0.00 66 1013.1
20260504100539 59 219 0.9 4.3 0.00 0.00 0.00 62 1013.0
20260504081933 60 222 0.0 2.6 0.00 0.00 0.00 58 1013.6
20260504081430 60 215 0.0 1.7 0.00 0.00 0.00 57 1013.1
20260504080926 60 190 2.6 2.6 0.00 0.00 0.00 56 1013.6
20260504080423 60 218 0.9 2.6 0.00 0.00 0.00 56 1013.2
20260504070350 61 223 2.6 2.6 0.00 0.00 0.00 54 1014.0
20260504050738 55 216 0.9 1.7 0.00 0.00 0.00 66 1014.8
20260504050235 55 217 0.9 1.7 0.00 0.00 0.00 67 1014.9
20260504045732 54 216 0.0 0.9 0.00 0.00 0.00 67 1015.1
20260504045227 53 218 1.7 1.7 0.00 0.00 0.00 69 1015.0
20260504044725 52 212 0.9 0.9 0.00 0.00 0.00 73 1015.0
20260504044222 52 214 0.9 1.7 0.00 0.00 0.00 76 1014.8
20260504043720 52 214 0.9 0.9 0.00 0.00 0.00 75 1015.1
20260504043216 52 212 0.9 1.7 0.00 0.00 0.00 73 1015.2
20260504042714 51 219 0.9 0.9 0.00 0.00 0.00 76 1015.3
20260504042210 51 220 0.9 1.7 0.00 0.00 0.00 76 1015.2
20260504041706 51 217 0.9 1.7 0.00 0.00 0.00 78 1015.2
20260504041202 51 217 0.9 1.7 0.00 0.00 0.00 79 1015.3
20260504040659 51 217 0.9 1.7 0.00 0.00 0.00 78 1015.1
20260504040156 51 217 0.9 0.9 0.00 0.00 0.00 79 1015.2
20260504035652 50 217 0.9 0.9 0.00 0.00 0.00 80 1015.1
20260504035150 50 217 0.0 0.9 0.00 0.00 0.00 80 1015.3
20260504034647 50 217 0.9 1.7 0.00 0.00 0.00 79 1015.1
20260504034144 50 217 0.0 1.7 0.00 0.00 0.00 79 1015.1
20260504033642 50 216 0.0 1.7 0.00 0.00 0.00 80 1015.6
20260504033139 50 211 0.0 0.9 0.00 0.00 0.00 83 1015.3
20260504032635 50 210 0.9 0.9 0.00 0.00 0.00 82 1015.4
20260504032132 50 217 0.0 0.9 0.00 0.00 0.00 81 1015.8
20260504031630 50 217 0.0 0.0 0.00 0.00 0.00 80 1015.5
20260504031126 50 217 0.0 0.9 0.00 0.00 0.00 80 1015.8
20260504030623 50 217 0.0 0.9 0.00 0.00 0.00 80 1015.7
20260504030120 50 217 0.0 0.9 0.00 0.00 0.00 79 1015.7
20260504025616 50 217 0.0 0.9 0.00 0.00 0.00 79 1015.5
20260504025113 50 217 0.0 0.0 0.00 0.00 0.00 79 1015.4
20260504024611 50 217 0.0 0.0 0.00 0.00 0.00 78 1015.7
20260504024107 51 217 0.0 0.0 0.00 0.00 0.00 77 1015.8
20260504023604 51 217 0.0 0.0 0.00 0.00 0.00 77 1015.6
20260504023059 51 217 0.0 0.0 0.00 0.00 0.00 76 1015.6
20260504022556 52 217 0.0 0.0 0.00 0.00 0.00 74 1015.6
20260504022052 52 217 0.0 0.0 0.00 0.00 0.00 73 1015.6
20260504021550 53 217 0.0 0.0 0.00 0.00 0.00 72 1015.6
20260504021046 53 217 0.0 0.0 0.00 0.00 0.00 72 1015.6
20260504020543 53 217 0.0 0.0 0.00 0.00 0.00 70 1015.6
20260504020040 53 217 0.0 0.0 0.00 0.00 0.00 69 1015.5
20260504015537 53 217 0.0 0.0 0.00 0.00 0.00 69 1015.5
20260504015032 54 217 0.0 0.0 0.00 0.00 0.00 67 1015.5
20260504014529 55 218 0.0 0.0 0.00 0.00 0.00 66 1015.4
20260504014026 55 217 0.0 0.0 0.00 0.00 0.00 65 1015.5
20260504013524 56 217 0.0 0.0 0.00 0.00 0.00 63 1015.3
20260504013020 57 217 0.0 0.0 0.00 0.00 0.00 62 1015.2
20260504012518 58 217 0.0 0.0 0.00 0.00 0.00 60 1015.2
20260504012016 58 217 0.0 0.9 0.00 0.00 0.00 59 1015.3
20260504011512 59 217 0.0 0.9 0.00 0.00 0.00 58 1015.2
20260504011008 59 217 0.9 0.9 0.00 0.00 0.00 57 1015.3
20260504010504 60 217 0.0 0.9 0.00 0.00 0.00 53 1015.2
20260504010000 61 216 0.0 1.7 0.00 0.00 0.00 52 1015.2
20260504005457 62 216 0.9 0.9 0.00 0.00 0.00 51 1015.2
20260504004954 62 217 0.0 1.7 0.00 0.00 0.00 50 1015.0
20260504004452 63 218 0.0 0.9 0.00 0.00 0.00 50 1015.2
20260504003949 64 213 0.0 0.9 0.00 0.00 0.00 45 1015.2
20260504003445 64 212 0.9 0.9 0.00 0.00 0.00 43 1015.3
20260504002942 65 209 0.9 0.9 0.00 0.00 0.00 43 1015.2
20260504002439 66 221 0.0 0.9 0.00 0.00 0.00 42 1015.2
20260504001936 65 237 2.6 5.2 0.00 0.00 0.00 41 1015.4
20260504001433 66 226 2.6 2.6 0.00 0.00 0.00 43 1015.4
20260504000930 67 210 1.7 1.7 0.00 0.00 0.00 43 1015.4
20260504000427 67 209 0.9 1.7 0.00 0.00 0.00 40 1015.7
20260503235924 67 225 2.6 4.3 0.00 0.00 0.00 39 1015.4
20260503235422 68 214 1.7 6.1 0.00 0.00 0.00 39 1015.7
20260503234919 68 215 1.7 6.1 0.00 0.00 0.00 38 1015.7
20260503234417 69 229 0.9 5.2 0.00 0.00 0.00 38 1015.5
20260503233915 69 213 0.9 5.2 0.00 0.00 0.00 36 1015.8
20260503233411 69 209 3.5 5.2 0.00 0.00 0.00 37 1015.9
20260503232907 70 215 2.6 5.2 0.00 0.00 0.00 35 1015.9
20260503232405 70 237 0.9 4.3 0.00 0.00 0.00 36 1015.9
20260503231902 70 214 2.6 4.3 0.00 0.00 0.00 36 1016.0
20260503231359 70 200 4.3 5.2 0.00 0.00 0.00 37 1016.1
20260503230855 70 209 4.3 8.7 0.00 0.00 0.00 35 1016.1
20260503230352 70 222 0.9 5.2 0.00 0.00 0.00 36 1016.1
20260503225850 70 197 1.7 2.6 0.00 0.00 0.00 37 1016.2
20260503225346 70 207 0.9 7.8 0.00 0.00 0.00 34 1016.2
20260503224842 71 207 5.2 7.0 0.00 0.00 0.00 34 1016.1
20260503224339 70 220 1.7 4.3 0.00 0.00 0.00 35 1016.2
20260503223837 70 232 3.5 6.1 0.00 0.00 0.00 34 1016.3
20260503223335 70 253 2.6 7.0 0.00 0.00 0.00 34 1016.2
20260503222830 71 281 2.6 9.6 0.00 0.00 0.00 33 1016.3
20260503222329 71 220 2.6 4.3 0.00 0.00 0.00 34 1016.2
20260503221826 71 247 2.6 2.6 0.00 0.00 0.00 34 1016.5
20260503221325 70 213 2.6 5.2 0.00 0.00 0.00 36 1016.5
20260503220821 70 228 2.6 5.2 0.00 0.00 0.00 35 1016.6
20260503220318 70 232 4.3 7.8 0.00 0.00 0.00 35 1016.8
20260503215814 71 180 4.3 7.0 0.00 0.00 0.00 31 1016.9
20260503215312 70 191 2.6 7.0 0.00 0.00 0.00 36 1016.8
20260503214810 70 195 3.5 7.0 0.00 0.00 0.00 34 1016.9
20260503214306 70 261 3.5 5.2 0.00 0.00 0.00 36 1017.2
20260503213804 70 254 2.6 5.2 0.00 0.00 0.00 34 1017.1
20260503213301 70 221 8.7 11.3 0.00 0.00 0.00 34 1017.1
20260503212758 70 198 6.1 7.8 0.00 0.00 0.00 36 1017.4
20260503212256 69 228 5.2 7.8 0.00 0.00 0.00 34 1017.5
20260503211753 70 235 8.7 9.6 0.00 0.00 0.00 34 1017.6
20260503211249 70 190 5.2 7.0 0.00 0.00 0.00 34 1017.4
20260503210744 69 229 4.3 6.1 0.00 0.00 0.00 35 1017.8
20260503210242 70 206 5.2 7.0 0.00 0.00 0.00 34 1017.9
20260503205743 69 227 4.3 11.3 0.00 0.00 0.00 35 1017.7
20260503205240 70 213 5.2 9.6 0.00 0.00 0.00 34 1017.7
20260503204736 69 220 3.5 7.8 0.00 0.00 0.00 38 1018.1
20260503204234 69 193 3.5 5.2 0.00 0.00 0.00 34 1018.2
20260503203731 69 221 6.1 9.6 0.00 0.00 0.00 34 1018.1
20260503203228 69 232 2.6 7.0 0.00 0.00 0.00 36 1018.4
20260503202725 69 215 0.9 5.2 0.00 0.00 0.00 35 1018.4
20260503202223 70 220 3.5 9.6 0.00 0.00 0.00 34 1018.9
20260503201721 70 233 4.3 5.2 0.00 0.00 0.00 38 1018.5
20260503201218 68 236 3.5 5.2 0.00 0.00 0.00 35 1019.0
20260503200714 68 258 5.2 9.6 0.00 0.00 0.00 35 1019.1
20260503200211 68 209 6.1 7.8 0.00 0.00 0.00 35 1019.3
20260503195707 69 186 9.6 12.2 0.00 0.00 0.00 37 1019.2
20260503195205 69 227 3.5 6.1 0.00 0.00 0.00 34 1019.3
20260503194702 68 247 1.7 5.2 0.00 0.00 0.00 38 1019.6
20260503194157 68 222 6.1 7.8 0.00 0.00 0.00 34 1019.5
20260503193654 68 254 5.2 7.8 0.00 0.00 0.00 37 1019.7
20260503193149 67 218 0.9 6.1 0.00 0.00 0.00 38 1019.7
20260503192645 68 178 4.3 7.0 0.00 0.00 0.00 35 1019.8
20260503192141 68 34 2.6 4.3 0.00 0.00 0.00 39 1019.8
20260503191638 67 225 4.3 7.0 0.00 0.00 0.00 35 1019.9
20260503191135 68 236 7.8 9.6 0.00 0.00 0.00 36 1020.0
20260503190632 68 330 2.6 8.7 0.00 0.00 0.00 37 1020.0
20260503190129 67 300 2.6 4.3 0.00 0.00 0.00 40 1020.2
20260503185626 66 194 1.7 5.2 0.00 0.00 0.00 40 1020.0
20260503185121 67 239 6.1 11.3 0.00 0.00 0.00 37 1020.3
20260503184616 67 213 2.6 5.2 0.00 0.00 0.00 37 1020.1
20260503184113 66 216 2.6 5.2 0.00 0.00 0.00 42 1020.5
20260503183609 67 230 6.1 7.8 0.00 0.00 0.00 37 1020.2
20260503183107 67 212 2.6 7.0 0.00 0.00 0.00 39 1020.1
20260503182605 67 242 0.9 8.7 0.00 0.00 0.00 38 1020.4
20260503182103 66 224 4.3 6.1 0.00 0.00 0.00 41 1020.5
20260503181559 66 236 5.2 7.8 0.00 0.00 0.00 38 1020.6
20260503181056 66 278 3.5 4.3 0.00 0.00 0.00 41 1020.5
20260503180553 65 202 3.5 5.2 0.00 0.00 0.00 37 1020.6
20260503180050 66 188 7.0 8.7 0.00 0.00 0.00 37 1020.9
20260503175547 65 210 0.0 0.9 0.00 0.00 0.00 40 1020.7
20260503175045 65 232 4.3 7.0 0.00 0.00 0.00 39 1020.9
20260503174542 65 193 4.3 6.1 0.00 0.00 0.00 40 1021.1
20260503174038 65 185 1.7 5.2 0.00 0.00 0.00 40 1021.3
20260503173533 65 231 2.6 4.3 0.00 0.00 0.00 41 1021.3
20260503173029 64 207 1.7 1.7 0.00 0.00 0.00 40 1021.3
20260503172528 64 254 1.7 7.8 0.00 0.00 0.00 41 1021.5
20260503172024 65 219 5.2 6.1 0.00 0.00 0.00 37 1021.4
20260503171521 64 65 0.9 1.7 0.00 0.00 0.00 40 1021.6
20260503171018 64 227 1.7 6.1 0.00 0.00 0.00 38 1021.8
20260503170514 65 236 4.3 6.1 0.00 0.00 0.00 40 1021.8